This is the latest recevied weather packets stored in our database for station/object N8HKU-5. If no packets are shown the sender has not sent any weather packets the latest 1 day(s).
| Time | Temp. | Humidity | Pressure | Rain* | Wind** | Luminosity | Snow |
|---|---|---|---|---|---|---|---|
| 1778020953 | 12.22° C | 63% | 1005.2 hPa | 0 mm | 0 m/s | - | - |
| 1778020353 | 12.22° C | 63% | 1005.3 hPa | 0 mm | 0 m/s | - | - |
| 1778019754 | 12.22° C | 65% | 1005.3 hPa | 0 mm | 0 m/s | - | - |
| 1778019153 | 12.22° C | 68% | 1005.2 hPa | 0 mm | 0 m/s | - | - |
| 1778018553 | 12.22° C | 68% | 1005.2 hPa | 0 mm | 0 m/s | - | - |
| 1778017954 | 12.22° C | 68% | 1005.3 hPa | 0 mm | 0 m/s | - | - |
| 1778017354 | 12.22° C | 68% | 1005.3 hPa | 0 mm | 0 m/s | - | - |
| 1778016754 | 12.22° C | 69% | 1005.3 hPa | 0 mm | 0 m/s | - | - |
| 1778016154 | 12.22° C | 70% | 1005.2 hPa | 0 mm | 0 m/s | - | - |
| 1778015553 | 12.22° C | 70% | 1005.2 hPa | 0 mm | 0 m/s | - | - |
| 1778014953 | 12.22° C | 71% | 1005.3 hPa | 0 mm | 0 m/s | - | - |
| 1778014353 | 12.22° C | 71% | 1005.4 hPa | 0 mm | 0 m/s | - | - |
| 1778013753 | 12.22° C | 70% | 1005.5 hPa | 0 mm | 0 m/s | - | - |
| 1778013153 | 12.22° C | 69% | 1005.5 hPa | 0 mm | 0 m/s | - | - |
| 1778012553 | 12.22° C | 68% | 1005.5 hPa | 0 mm | 0 m/s | - | - |
| 1778011955 | 12.22° C | 70% | 1005.7 hPa | 0 mm | 0 m/s | - | - |
| 1778011353 | 12.22° C | 70% | 1005.7 hPa | 0 mm | 0 m/s | - | - |
| 1778010753 | 12.22° C | 69% | 1005.6 hPa | 0 mm | 0 m/s | - | - |
| 1778010153 | 11.67° C | 71% | 1005.8 hPa | 0 mm | 0 m/s | - | - |
| 1778009554 | 11.67° C | 70% | 1005.8 hPa | 0 mm | 0.45 m/s, 276° | - | - |
| 1778008954 | 12.22° C | 73% | 1005.7 hPa | 0 mm | 0 m/s | - | - |
| 1778008353 | 11.67° C | 74% | 1005.7 hPa | 0 mm | 0 m/s | - | - |
| 1778007754 | 11.11° C | 71% | 1005.9 hPa | 0 mm | 0 m/s | - | - |
| 1778007153 | 11.11° C | 75% | 1006 hPa | 0 mm | 0 m/s | - | - |
| 1778006553 | 11.11° C | 74% | 1006 hPa | 0 mm | 0 m/s | - | - |
* Rain latest hour (hover to see other rain measurements)
** Current wind speed in m/s (hover to see current wind gust speed)